Time,TemperatureF,DewpointF,PressureIn,WindDirection,WindDirectionDegrees,WindSpeedMPH,WindSpeedGustMPH,Humidity,HourlyPrecipIn,Conditions,Clouds,dailyrainin,SoftwareType,DateUTC
2013-07-31 00:00:00,71.0,66.0,30.08,West,270,9.0,10.0,85,-99.99,,,-99.99,,2013-07-31 04:00:00,
2013-07-31 00:42:00,71.0,66.0,30.08,West,270,9.0,10.0,85,-99.99,,,-99.99,,2013-07-31 04:42:00,
2013-07-31 00:52:00,71.0,66.0,30.08,West,270,9.0,10.0,85,-99.99,,,-99.99,,2013-07-31 04:52:00,
2013-07-31 01:32:00,71.0,62.0,30.08,WNW,290,12.0,13.0,74,-99.99,,,-99.99,,2013-07-31 05:32:00,
2013-07-31 01:42:00,71.0,62.0,30.08,WNW,290,12.0,13.0,74,-99.99,,,-99.99,,2013-07-31 05:42:00,
2013-07-31 01:51:00,71.0,62.0,30.08,WNW,290,12.0,13.0,74,-99.99,,,-99.99,,2013-07-31 05:51:00,
2013-07-31 02:00:00,71.0,60.0,30.08,WNW,290,10.0,10.0,70,-99.99,,,-99.99,,2013-07-31 06:00:00,
2013-07-31 02:32:00,71.0,60.0,30.08,WNW,290,10.0,10.0,70,-99.99,,,-99.99,,2013-07-31 06:32:00,
2013-07-31 02:42:00,71.0,60.0,30.08,WNW,290,10.0,10.0,70,-99.99,,,-99.99,,2013-07-31 06:42:00,
2013-07-31 02:52:00,71.0,60.0,30.08,WNW,290,10.0,10.0,70,-99.99,,,-99.99,,2013-07-31 06:52:00,
2013-07-31 03:00:00,70.0,59.0,30.08,WNW,300,10.0,12.0,67,-99.99,,,-99.99,,2013-07-31 07:00:00,
2013-07-31 03:32:00,70.0,59.0,30.08,WNW,300,10.0,12.0,67,-99.99,,,-99.99,,2013-07-31 07:32:00,
2013-07-31 03:43:00,70.0,59.0,30.08,WNW,300,10.0,12.0,67,-99.99,,,-99.99,,2013-07-31 07:43:00,
2013-07-31 03:52:00,70.0,59.0,30.08,WNW,300,10.0,12.0,67,-99.99,,,-99.99,,2013-07-31 07:52:00,
2013-07-31 04:00:00,70.0,60.0,30.08,WNW,290,9.0,9.0,71,-99.99,,,-99.99,,2013-07-31 08:00:00,
2013-07-31 04:32:00,70.0,60.0,30.08,WNW,290,9.0,9.0,71,-99.99,,,-99.99,,2013-07-31 08:32:00,
2013-07-31 04:42:00,70.0,60.0,30.08,WNW,290,9.0,9.0,71,-99.99,,,-99.99,,2013-07-31 08:42:00,
2013-07-31 04:53:00,70.0,60.0,30.08,WNW,290,9.0,9.0,71,-99.99,,,-99.99,,2013-07-31 08:53:00,
2013-07-31 05:00:00,70.0,60.0,30.09,WNW,290,7.0,8.0,72,-99.99,,,-99.99,,2013-07-31 09:00:00,
2013-07-31 05:43:00,70.0,60.0,30.09,WNW,290,7.0,8.0,72,-99.99,,,-99.99,,2013-07-31 09:43:00,
2013-07-31 05:52:00,70.0,60.0,30.09,WNW,290,7.0,8.0,72,-99.99,,,-99.99,,2013-07-31 09:52:00,
2013-07-31 06:00:00,69.0,61.0,30.10,West,280,6.0,6.0,73,-99.99,,,-99.99,,2013-07-31 10:00:00,
2013-07-31 06:32:00,69.0,61.0,30.10,West,280,6.0,6.0,73,-99.99,,,-99.99,,2013-07-31 10:32:00,
2013-07-31 06:44:00,69.0,61.0,30.10,West,280,6.0,6.0,73,-99.99,,,-99.99,,2013-07-31 10:44:00,
2013-07-31 06:52:00,69.0,61.0,30.10,West,280,6.0,6.0,73,-99.99,,,-99.99,,2013-07-31 10:52:00,
2013-07-31 08:00:00,69.0,58.0,30.12,NW,310,7.0,7.0,67,-99.99,,,-99.99,,2013-07-31 12:00:00,
2013-07-31 08:43:00,69.0,58.0,30.12,NW,310,7.0,7.0,67,-99.99,,,-99.99,,2013-07-31 12:43:00,
2013-07-31 08:52:00,69.0,58.0,30.12,NW,310,7.0,7.0,67,-99.99,,,-99.99,,2013-07-31 12:52:00,
2013-07-31 09:00:00,70.0,60.0,30.12,NNW,330,3.0,3.0,70,-99.99,,,-99.99,,2013-07-31 13:00:00,
2013-07-31 09:43:00,70.0,60.0,30.12,NNW,330,3.0,3.0,70,-99.99,,,-99.99,,2013-07-31 13:43:00,
2013-07-31 09:53:00,70.0,60.0,30.12,NNW,330,3.0,3.0,70,-99.99,,,-99.99,,2013-07-31 13:53:00,
2013-07-31 10:00:00,71.0,58.0,30.12,North,0,0.0,1.0,64,-99.99,,,-99.99,,2013-07-31 14:00:00,
2013-07-31 10:34:00,71.0,58.0,30.12,North,0,0.0,1.0,64,-99.99,,,-99.99,,2013-07-31 14:34:00,
2013-07-31 10:43:00,71.0,58.0,30.12,North,0,0.0,1.0,64,-99.99,,,-99.99,,2013-07-31 14:43:00,
2013-07-31 10:53:00,71.0,58.0,30.12,North,0,0.0,1.0,64,-99.99,,,-99.99,,2013-07-31 14:53:00,
2013-07-31 11:00:00,70.0,61.0,30.11,SSW,210,3.0,3.0,73,-99.99,,,-99.99,,2013-07-31 15:00:00,
2013-07-31 11:33:00,70.0,61.0,30.11,SSW,210,3.0,3.0,73,-99.99,,,-99.99,,2013-07-31 15:33:00,
2013-07-31 11:43:00,70.0,61.0,30.11,SSW,210,3.0,3.0,73,-99.99,,,-99.99,,2013-07-31 15:43:00,
2013-07-31 11:52:00,70.0,61.0,30.11,SSW,210,3.0,3.0,73,-99.99,,,-99.99,,2013-07-31 15:52:00,
2013-07-31 12:00:00,70.0,60.0,30.11,SSW,210,6.0,7.0,71,-99.99,,,-99.99,,2013-07-31 16:00:00,
2013-07-31 12:33:00,70.0,60.0,30.11,SSW,210,6.0,7.0,71,-99.99,,,-99.99,,2013-07-31 16:33:00,
2013-07-31 12:43:00,70.0,60.0,30.11,SSW,210,6.0,7.0,71,-99.99,,,-99.99,,2013-07-31 16:43:00,
2013-07-31 12:52:00,70.0,60.0,30.11,SSW,210,6.0,7.0,71,-99.99,,,-99.99,,2013-07-31 16:52:00,
2013-07-31 13:00:00,69.0,63.0,30.10,SSW,210,9.0,10.0,78,-99.99,,,-99.99,,2013-07-31 17:00:00,
2013-07-31 13:43:00,69.0,63.0,30.10,SSW,210,9.0,10.0,78,-99.99,,,-99.99,,2013-07-31 17:43:00,
2013-07-31 13:53:00,69.0,63.0,30.10,SSW,210,9.0,10.0,78,-99.99,,,-99.99,,2013-07-31 17:53:00,
2013-07-31 14:00:00,69.0,62.0,30.09,SSW,200,13.0,14.0,78,-99.99,,,-99.99,,2013-07-31 18:00:00,
2013-07-31 14:32:00,69.0,62.0,30.09,SSW,200,13.0,14.0,78,-99.99,,,-99.99,,2013-07-31 18:32:00,
2013-07-31 14:43:00,69.0,62.0,30.09,SSW,200,13.0,14.0,78,-99.99,,,-99.99,,2013-07-31 18:43:00,
2013-07-31 14:52:00,69.0,62.0,30.09,SSW,200,13.0,14.0,78,-99.99,,,-99.99,,2013-07-31 18:52:00,
2013-07-31 15:00:00,70.0,62.0,30.09,SSW,210,10.0,10.0,76,-99.99,,,-99.99,,2013-07-31 19:00:00,
2013-07-31 15:43:00,70.0,62.0,30.09,SSW,210,10.0,10.0,76,-99.99,,,-99.99,,2013-07-31 19:43:00,
2013-07-31 15:52:00,70.0,62.0,30.09,SSW,210,10.0,10.0,76,-99.99,,,-99.99,,2013-07-31 19:52:00,
2013-07-31 18:00:00,70.0,65.0,30.06,SSW,210,13.0,13.0,82,-99.99,,,-99.99,,2013-07-31 22:00:00,
2013-07-31 18:32:00,70.0,65.0,30.06,SSW,210,13.0,13.0,82,-99.99,,,-99.99,,2013-07-31 22:32:00,
2013-07-31 18:42:00,70.0,65.0,30.06,SSW,210,13.0,13.0,82,-99.99,,,-99.99,,2013-07-31 22:42:00,
2013-07-31 18:52:00,70.0,65.0,30.06,SSW,210,13.0,13.0,82,-99.99,,,-99.99,,2013-07-31 22:52:00,
2013-07-31 19:00:00,70.0,65.0,30.06,SSW,210,12.0,13.0,82,-99.99,,,-99.99,,2013-07-31 23:00:00,
2013-07-31 19:32:00,70.0,65.0,30.06,SSW,210,12.0,13.0,82,-99.99,,,-99.99,,2013-07-31 23:32:00,
2013-07-31 19:42:00,70.0,65.0,30.06,SSW,210,12.0,13.0,82,-99.99,,,-99.99,,2013-07-31 23:42:00,
2013-07-31 19:52:00,70.0,65.0,30.06,SSW,210,12.0,13.0,82,-99.99,,,-99.99,,2013-07-31 23:52:00,
2013-07-31 20:00:00,70.0,65.0,30.05,SSW,210,12.0,12.0,82,-99.99,,,-99.99,,2013-08-01 00:00:00,
2013-07-31 20:32:00,70.0,65.0,30.05,SSW,210,12.0,12.0,82,-99.99,,,-99.99,,2013-08-01 00:32:00,
2013-07-31 20:42:00,70.0,65.0,30.05,SSW,210,12.0,12.0,82,-99.99,,,-99.99,,2013-08-01 00:42:00,
2013-07-31 20:52:00,70.0,65.0,30.05,SSW,210,12.0,12.0,82,-99.99,,,-99.99,,2013-08-01 00:52:00,
2013-07-31 21:00:00,70.0,65.0,30.06,SSW,200,12.0,12.0,86,-99.99,,,-99.99,,2013-08-01 01:00:00,
2013-07-31 21:32:00,70.0,65.0,30.06,SSW,200,12.0,12.0,86,-99.99,,,-99.99,,2013-08-01 01:32:00,
2013-07-31 21:42:00,70.0,65.0,30.06,SSW,200,12.0,12.0,86,-99.99,,,-99.99,,2013-08-01 01:42:00,
2013-07-31 21:53:00,70.0,65.0,30.06,SSW,200,12.0,12.0,86,-99.99,,,-99.99,,2013-08-01 01:53:00,
2013-07-31 22:00:00,70.0,65.0,30.06,SSW,200,9.0,10.0,85,-99.99,,,-99.99,,2013-08-01 02:00:00,
2013-07-31 22:32:00,70.0,65.0,30.06,SSW,200,9.0,10.0,85,-99.99,,,-99.99,,2013-08-01 02:32:00,
2013-07-31 22:42:00,70.0,65.0,30.06,SSW,200,9.0,10.0,85,-99.99,,,-99.99,,2013-08-01 02:42:00,
2013-07-31 22:52:00,70.0,65.0,30.06,SSW,200,9.0,10.0,85,-99.99,,,-99.99,,2013-08-01 02:52:00,
2013-07-31 23:00:00,70.0,65.0,30.06,South,190,10.0,10.0,86,-99.99,,,-99.99,,2013-08-01 03:00:00,
2013-07-31 23:32:00,70.0,65.0,30.06,South,190,10.0,10.0,86,-99.99,,,-99.99,,2013-08-01 03:32:00,
2013-07-31 23:43:00,70.0,65.0,30.06,South,190,10.0,10.0,86,-99.99,,,-99.99,,2013-08-01 03:43:00,
2013-07-31 23:53:00,70.0,65.0,30.06,South,190,10.0,10.0,86,-99.99,,,-99.99,,2013-08-01 03:53:00,